Home   Weather   Taunusstein   Past weeks

Flag for Germany Past Weather in Taunusstein, Hesse, Germany — Yesterday and Last 2 Weeks

Now
68 °F

Sunny.


Feels Like: 68 °F
Forecast: 54 / 74 °F
Wind: 7 mph from Northeast

Location: Wiesbaden Airport

Current Time: Aug 30, 2016 at 9:13:58 PM

Latest Report: Aug 30, 2016 at 8:58 PM


Visibility: N/A

Pressure: 30.21 "Hg

Humidity: 41%

Dew Point: 44 °F

Location of TaunussteinLocation

Past Weather in Taunusstein — Graph

°F

Taunusstein Temperature Yesterday

Maximum temperature yesterday: 78 °F (at 1:58 PM)
Minimum temperature yesterday: 63 °F (at 5:58 AM)
Average temperature yesterday: 70 °F

High & Low Weather Summary for the Past Weeks

 TemperatureHumidityPressure
High93 °F (Aug 27, 4:58 PM)89% (Aug 22, 6:58 AM)30.39 "Hg (Aug 22, 6:58 AM)
Low52 °F (Aug 18, 6:58 AM)22% (Aug 16, 5:58 PM)29.79 "Hg (Aug 18, 5:58 PM)
Average70 °F55%30.06 "Hg
* Reported Aug 15 7:58 PM — Aug 30 7:58 PM, Taunusstein, Weather by CustomWeather, © 2016

Note: Actual official high and low records may vary slightly from our data, if they occured in-between our weather recording intervals... More about our weather records

Advertising

Taunusstein Weather History for the Previous 24 Hours

Scroll right to see more
 ConditionsComfort  
Time TempWeatherWind HumidityBarometerVisibility
7:58 PM
Tue, Aug 30
73 °FSunny.6 mph31%30.19 "HgN/A
6:58 PM75 °FSunny.5 mph29%30.19 "HgN/A
5:58 PM77 °FSunny.6 mph28%30.21 "HgN/A
4:58 PM75 °FSunny.6 mph29%30.22 "HgN/A
3:58 PM76 °FSunny.12 mph28%30.23 "HgN/A
2:58 PM75 °FSunny.3 mph31%30.25 "HgN/A
1:58 PM74 °FSunny.14 mph35%30.26 "HgN/A
12:58 PM73 °FSunny.6 mph42%30.27 "HgN/A
11:58 AM72 °FSunny.9 mph47%30.29 "HgN/A
10:58 AM70 °FSunny.6 mph50%30.29 "HgN/A
9:58 AM67 °FSunny.7 mph54%30.29 "HgN/A
8:58 AM64 °FSunny.5 mph61%30.29 "HgN/A
7:58 AM62 °FSunny.6 mph68%30.27 "HgN/A
6:58 AM61 °FClear.6 mph72%30.25 "HgN/A
5:58 AM61 °FClear.7 mph72%30.23 "HgN/A
4:58 AM62 °FPassing clouds.8 mph71%30.23 "HgN/A
3:58 AM63 °FClear.6 mph73%30.23 "HgN/A
2:58 AM63 °FClear.8 mph73%30.22 "HgN/A
1:58 AM65 °FPassing clouds.10 mph68%30.22 "HgN/A
12:58 AM65 °FPassing clouds.8 mph66%30.22 "HgN/A
11:58 PM
Mon, Aug 29
66 °FMostly cloudy.9 mph65%30.21 "HgN/A
10:58 PM67 °FOvercast.7 mph62%30.20 "HgN/A
9:58 PM68 °FOvercast.5 mph61%30.19 "HgN/A
Weather by CustomWeather, © 2016

See weather overviewHow to use our weather pages